Location: Zapote
(9.9191°N, 84.0597°W)
Time: 13:54:43
(UTC-06:00)

Courier 1B Rocket - All Passes

Search period start: 04 March 2021 00:00
Search period end: 14 March 2021 00:00
Orbit: 920 x 1202 km, 28.3° (Epoch: 03 March)

Date Brightness Start Highest point End Pass type
(mag) Time Alt. Az. Time Alt. Az. Time Alt. Az.
04 Mar - 09:02:03 10° S 09:06:03 17° SSE 09:10:09 10° ESE daylight
04 Mar - 10:52:58 10° SW 10:59:23 68° SSE 11:06:17 10° ENE daylight
04 Mar - 12:46:52 10° W 12:53:10 40° NNW 12:59:55 10° NE daylight
04 Mar - 14:42:47 10° NW 14:47:56 20° N 14:53:19 10° NE daylight
04 Mar - 16:38:16 10° NW 16:43:24 19° N 16:48:40 10° NE daylight
04 Mar - 18:31:46 10° NW 18:38:35 33° NNE 18:45:26 10° E visible
04 Mar - 20:25:03 10° WNW 20:32:55 81° NNE 20:40:35 10° ESE visible
04 Mar - 22:19:56 10° W 22:26:40 32° SSW 22:33:08 10° SSE night (unlit)
05 Mar - 09:52:23 10° SW 09:58:22 44° SSE 10:04:41 10° ENE daylight
05 Mar - 11:45:27 10° WSW 11:51:51 55° NNW 11:58:44 10° NE daylight
05 Mar - 13:40:51 10° WNW 13:46:15 24° NNW 13:51:57 10° NE daylight
05 Mar - 15:36:48 10° NW 15:41:34 18° N 15:46:28 10° NE daylight
05 Mar - 17:30:44 10° NW 17:36:54 26° NNE 17:43:12 10° ENE daylight
05 Mar - 19:23:49 10° NW 19:31:31 59° NNE 19:39:08 10° ESE visible
05 Mar - 21:17:55 10° WNW 21:25:24 49° SSW 21:32:37 10° SE visible
05 Mar - 23:15:50 10° WSW 23:19:13 13° SSW 23:22:32 10° S night (unlit)
06 Mar - 08:52:08 10° SSW 08:57:22 28° SSE 09:02:47 10° E daylight
06 Mar - 10:44:17 10° WSW 10:50:42 79° NNW 10:57:32 10° ENE daylight
06 Mar - 12:39:01 10° WNW 12:44:43 29° NNW 12:50:46 10° NE daylight
06 Mar - 14:35:08 10° NW 14:39:44 18° N 14:44:33 10° NE daylight
06 Mar - 16:29:41 10° NW 16:35:10 21° NNE 16:40:48 10° ENE daylight
06 Mar - 18:22:44 10° NW 18:30:00 43° NNE 18:37:22 10° E visible
06 Mar - 20:16:17 10° WNW 20:24:05 71° SSW 20:31:46 10° SE visible
06 Mar - 22:12:15 10° WSW 22:17:51 22° SSW 22:23:20 10° SSE visible
07 Mar - 07:52:24 10° S 07:56:21 17° SSE 08:00:18 10° ESE daylight
07 Mar - 09:43:24 10° SW 09:49:39 70° SSE 09:56:14 10° ENE daylight
07 Mar - 11:37:22 10° W 11:43:20 38° NNW 11:49:41 10° NE daylight
07 Mar - 13:33:17 10° NW 13:38:00 19° N 13:42:57 10° NE daylight
07 Mar - 15:28:33 10° NW 15:33:23 18° N 15:38:22 10° NE daylight
07 Mar - 17:21:46 10° NW 17:28:27 33° NNE 17:35:19 10° E daylight
07 Mar - 19:14:55 10° WNW 19:22:44 83° NNE 19:30:34 10° ESE visible
07 Mar - 21:09:44 10° W 21:16:32 33° SSW 21:23:13 10° SSE visible
08 Mar - 08:42:46 10° SW 08:48:40 44° SSE 08:54:44 10° ENE daylight
08 Mar - 10:35:56 10° W 10:42:06 52° NNW 10:48:37 10° NE daylight
08 Mar - 12:31:23 10° WNW 12:36:24 22° NNW 12:41:39 10° NE daylight
08 Mar - 14:27:14 10° NW 14:31:35 17° N 14:36:06 10° NE daylight
08 Mar - 16:20:52 10° NW 16:26:49 25° NNE 16:33:00 10° ENE daylight
08 Mar - 18:13:46 10° NW 18:21:19 60° NNE 18:29:02 10° ESE visible
08 Mar - 20:07:46 10° WNW 20:15:14 48° SSW 20:22:38 10° SE visible
08 Mar - 22:05:34 10° WSW 22:09:10 14° SSW 22:12:44 10° S visible
09 Mar - 07:42:28 10° SSW 07:47:42 28° SSE 07:52:57 10° E daylight
09 Mar - 09:34:44 10° WSW 09:41:00 77° NNW 09:47:31 10° ENE daylight
09 Mar - 11:29:33 10° WNW 11:34:54 27° NNW 11:40:33 10° NE daylight
09 Mar - 13:25:41 10° NW 13:29:50 17° N 13:34:10 10° NE daylight
09 Mar - 15:19:58 10° NW 15:25:09 21° NNE 15:30:31 10° ENE daylight
09 Mar - 17:12:47 10° NW 17:19:51 43° NNE 17:27:12 10° E daylight
09 Mar - 19:06:12 10° WNW 19:13:53 70° SSW 19:21:41 10° SE visible
09 Mar - 21:02:05 10° WSW 21:07:45 22° SSW 21:13:22 10° SSE visible
10 Mar - 06:42:35 10° S 06:46:38 18° SSE 06:50:40 10° ESE daylight
10 Mar - 08:33:47 10° SW 08:40:00 71° SSE 08:46:20 10° ENE daylight
10 Mar - 10:27:52 10° W 10:33:35 36° NNW 10:39:34 10° NE daylight
10 Mar - 12:23:53 10° NW 12:28:10 18° N 12:32:38 10° NNE daylight
10 Mar - 14:18:59 10° NNW 14:23:26 17° N 14:28:03 10° NE daylight
10 Mar - 16:11:57 10° NW 16:18:21 32° NNE 16:25:05 10° E daylight
10 Mar - 18:04:55 10° WNW 18:12:32 84° NNE 18:20:25 10° ESE visible
10 Mar - 19:59:38 10° W 20:06:23 32° SSW 20:13:09 10° SSE visible
11 Mar - 05:44:07 10° SSE 05:45:29 11° SSE 05:46:50 10° SE daylight
11 Mar - 07:33:04 10° SW 07:39:01 45° SSE 07:44:58 10° ENE daylight
11 Mar - 09:26:23 10° W 09:32:24 50° NNW 09:38:38 10° NE daylight
11 Mar - 11:21:58 10° WNW 11:26:37 21° NNW 11:31:26 10° NNE daylight
11 Mar - 13:17:49 10° NNW 13:21:43 16° N 13:25:45 10° NE daylight
11 Mar - 15:11:09 10° NW 15:16:48 25° NNE 15:22:43 10° ENE daylight
11 Mar - 17:03:52 10° NW 17:11:10 60° NNE 17:18:50 10° ESE daylight
11 Mar - 18:57:45 10° WNW 19:05:02 47° SSW 19:12:29 10° SE visible
11 Mar - 20:55:27 10° WSW 20:59:04 14° SSW 21:02:41 10° S visible
12 Mar - 06:32:39 10° SSW 06:38:02 29° SSE 06:43:19 10° E daylight
12 Mar - 08:25:07 10° WSW 08:31:21 75° NNW 08:37:39 10° ENE daylight
12 Mar - 10:20:05 10° WNW 10:25:12 26° NNW 10:30:28 10° NE daylight
12 Mar - 12:16:19 10° NW 12:20:02 15° N 12:23:51 10° NNE daylight
12 Mar - 14:10:24 10° NNW 14:15:12 20° NNE 14:20:14 10° ENE daylight
12 Mar - 16:03:00 10° NW 16:09:46 43° NNE 16:16:58 10° E daylight
12 Mar - 17:56:16 10° WNW 18:03:42 68° SSW 18:11:29 10° SE visible
12 Mar - 19:52:04 10° WSW 19:57:37 21° SSW 20:03:13 10° SSE visible
13 Mar - 05:32:36 10° SSW 05:36:57 19° SSE 05:41:11 10° ESE daylight
13 Mar - 07:24:04 10° SW 07:30:21 73° SSE 07:36:35 10° ENE daylight
13 Mar - 09:18:20 10° W 09:23:55 34° NNW 09:29:38 10° NE daylight
13 Mar - 11:14:31 10° NW 11:18:25 17° N 11:22:27 10° NNE daylight
13 Mar - 13:09:32 10° NNW 13:13:34 16° N 13:17:44 10° NE daylight
13 Mar - 15:02:15 10° NW 15:08:21 32° NNE 15:14:49 10° E daylight
13 Mar - 16:55:05 10° WNW 17:02:23 85° NNE 17:10:09 10° ESE daylight
13 Mar - 18:49:42 10° W 18:56:13 31° SSW 19:02:56 10° SSE visible
